MYT9340 EDDL-EGCC

Flight info

Callsign MYT9340
Flight time N/A
Altitude 34000
Route SONEB6Z SONEB P64 TENLI L602 SPY DCT RAVLO Y70 OTBED
Aircraft MD83/M-SDFGIRWY/S

Departure

Time 2026-05-07 14:13
Airport Düsseldorf Airport (EDDL)

Arrival

Time N/A
Airport Manchester Airport (EGCC)
Time Latitude Longitude Altitude Speed Heading
2026-05-07 13:45 51.27718 6.75344 125 ft 0 kts 243°
2026-05-07 14:00 51.27726 6.75368 121 ft 4 kts 236°
2026-05-07 14:00 51.27742 6.75402 123 ft 4 kts 229°
2026-05-07 14:00 51.27757 6.75429 123 ft 2 kts 232°
2026-05-07 14:01 51.27772 6.75462 122 ft 4 kts 232°
2026-05-07 14:01 51.27789 6.75496 124 ft 4 kts 232°
2026-05-07 14:01 51.27801 6.75522 123 ft 0 kts 233°
2026-05-07 14:07 51.27780 6.75473 122 ft 9 kts 243°
2026-05-07 14:07 51.27802 6.75387 125 ft 10 kts 321°
2026-05-07 14:07 51.27840 6.75349 124 ft 0 kts 330°
2026-05-07 14:08 51.27867 6.75327 125 ft 0 kts 333°
2026-05-07 14:09 51.27879 6.75318 123 ft 1 kts 333°
2026-05-07 14:11 51.27885 6.75313 124 ft 2 kts 333°
2026-05-07 14:12 51.27901 6.75300 124 ft 5 kts 334°
2026-05-07 14:12 51.27991 6.75283 124 ft 15 kts 27°
2026-05-07 14:12 51.28056 6.75401 126 ft 17 kts 53°
2026-05-07 14:12 51.28248 6.75803 127 ft 80 kts 53°
2026-05-07 14:13 51.28724 6.76799 129 ft 144 kts 52°
2026-05-07 14:13 51.29405 6.78259 416 ft 173 kts 54°
2026-05-07 14:13 51.30051 6.79887 1233 ft 179 kts 57°
2026-05-07 14:13 51.30832 6.81766 1272 ft 233 kts 49°
2026-05-07 14:14 51.31892 6.83782 2004 ft 248 kts 49°
2026-05-07 14:14 51.33057 6.86109 2037 ft 289 kts 51°
2026-05-07 14:14 51.34269 6.88646 3166 ft 270 kts 46°
2026-05-07 14:14 51.35712 6.90411 4390 ft 271 kts 24°
2026-05-07 14:15 51.37605 6.91235 4455 ft 276 kts
2026-05-07 14:15 51.39394 6.91712 4679 ft 257 kts
2026-05-07 14:15 51.41137 6.92170 4882 ft 255 kts
2026-05-07 14:15 51.42920 6.92610 4963 ft 257 kts
2026-05-07 14:16 51.44687 6.93023 5012 ft 256 kts
2026-05-07 14:16 51.46447 6.93438 5027 ft 257 kts
2026-05-07 14:16 51.48208 6.93864 5035 ft 259 kts
2026-05-07 14:16 51.49991 6.94205 5035 ft 256 kts 358°
2026-05-07 14:17 51.51754 6.93863 5050 ft 255 kts 350°
2026-05-07 14:17 51.53511 6.93342 5090 ft 259 kts 349°
2026-05-07 14:17 51.55304 6.92805 5783 ft 264 kts 349°
2026-05-07 14:17 51.57119 6.92256 6660 ft 266 kts 349°
2026-05-07 14:18 51.58953 6.91700 7458 ft 271 kts 349°
2026-05-07 14:18 51.60813 6.91148 8251 ft 274 kts 349°
2026-05-07 14:18 51.62717 6.90600 8984 ft 280 kts 349°
2026-05-07 14:18 51.64651 6.90053 9731 ft 285 kts 349°
2026-05-07 14:19 51.66629 6.89504 10298 ft 295 kts 349°
2026-05-07 14:19 51.68733 6.88922 10453 ft 317 kts 349°
2026-05-07 14:19 51.70977 6.88296 10637 ft 337 kts 348°
2026-05-07 14:19 51.73297 6.87531 10810 ft 355 kts 347°
2026-05-07 14:20 51.75741 6.86621 11271 ft 363 kts 345°
2026-05-07 14:20 51.78205 6.85663 11977 ft 365 kts 345°
2026-05-07 14:20 51.80680 6.84691 12694 ft 367 kts 345°
2026-05-07 14:20 51.83170 6.83716 13340 ft 371 kts 345°
2026-05-07 14:21 51.85692 6.82738 13972 ft 374 kts 346°
2026-05-07 14:21 51.88243 6.81760 14497 ft 379 kts 345°
2026-05-07 14:21 51.90824 6.80776 15082 ft 382 kts 346°
2026-05-07 14:21 51.93418 6.79787 15705 ft 384 kts 345°
2026-05-07 14:22 51.96033 6.78792 16296 ft 388 kts 346°
2026-05-07 14:22 51.98670 6.77792 16874 ft 391 kts 346°
2026-05-07 14:22 52.01279 6.76510 17424 ft 394 kts 333°
2026-05-07 14:22 52.03493 6.73938 18026 ft 394 kts 312°
2026-05-07 14:23 52.05211 6.70465 18604 ft 396 kts 305°
2026-05-07 14:23 52.06794 6.66786 19095 ft 399 kts 303°
2026-05-07 14:23 52.08358 6.63029 19571 ft 404 kts 303°
2026-05-07 14:23 52.09899 6.59283 19811 ft 412 kts 303°
2026-05-07 14:24 52.11500 6.55404 20046 ft 415 kts 303°
2026-05-07 14:24 52.13129 6.51529 20730 ft 414 kts 303°
2026-05-07 14:24 52.14770 6.47698 21430 ft 412 kts 304°
2026-05-07 14:24 52.16431 6.43866 21959 ft 416 kts 304°
2026-05-07 14:25 52.18111 6.40010 22437 ft 420 kts 304°
2026-05-07 14:25 52.19809 6.36110 22926 ft 423 kts 304°
2026-05-07 14:25 52.21520 6.32179 23429 ft 427 kts 304°
2026-05-07 14:25 52.23241 6.28222 23880 ft 430 kts 304°
2026-05-07 14:26 52.24854 6.24104 24264 ft 432 kts 294°
2026-05-07 14:26 52.25988 6.19567 24707 ft 432 kts 288°
2026-05-07 14:26 52.26959 6.14910 25162 ft 434 kts 287°
2026-05-07 14:26 52.27900 6.10228 25582 ft 436 kts 287°
2026-05-07 14:27 52.28852 6.05502 25972 ft 439 kts 287°
2026-05-07 14:27 52.29822 6.00763 26370 ft 442 kts 287°
2026-05-07 14:27 52.30819 5.95997 26782 ft 444 kts 288°
2026-05-07 14:27 52.31837 5.91230 27296 ft 443 kts 288°
2026-05-07 14:28 52.32858 5.86495 27884 ft 441 kts 288°
2026-05-07 14:28 52.33878 5.81781 28458 ft 438 kts 288°
2026-05-07 14:28 52.34892 5.77101 29006 ft 436 kts 288°
2026-05-07 14:28 52.35899 5.72436 29501 ft 435 kts 288°
2026-05-07 14:29 52.36903 5.67774 29947 ft 434 kts 288°
2026-05-07 14:29 52.37902 5.63118 30357 ft 433 kts 288°
2026-05-07 14:29 52.38895 5.58474 30770 ft 432 kts 288°
2026-05-07 14:29 52.39869 5.53832 31131 ft 431 kts 287°
2026-05-07 14:30 52.40833 5.49181 31452 ft 431 kts 287°
2026-05-07 14:30 52.41791 5.44522 31739 ft 432 kts 288°
2026-05-07 14:30 52.42758 5.39836 31943 ft 435 kts 288°
2026-05-07 14:30 52.43731 5.35150 32258 ft 435 kts 288°
2026-05-07 14:31 52.44705 5.30468 32668 ft 432 kts 288°
2026-05-07 14:31 52.45673 5.25815 33042 ft 431 kts 288°
2026-05-07 14:31 52.46640 5.21182 33390 ft 429 kts 288°
2026-05-07 14:31 52.47601 5.16553 33742 ft 428 kts 288°
2026-05-07 14:32 52.48559 5.11922 33929 ft 430 kts 288°
2026-05-07 14:32 52.50497 5.02584 34044 ft 432 kts 288°
2026-05-07 14:33 52.52426 4.93272 34070 ft 430 kts 288°
2026-05-07 14:33 52.54344 4.83957 34074 ft 431 kts 289°
2026-05-07 14:34 52.56406 4.74710 34076 ft 431 kts 290°
2026-05-07 14:34 52.58526 4.65512 34084 ft 431 kts 290°
2026-05-07 14:35 52.60640 4.56281 34084 ft 431 kts 290°
2026-05-07 14:35 52.62738 4.47049 34082 ft 431 kts 290°
2026-05-07 14:36 52.64826 4.37802 34087 ft 431 kts 290°
2026-05-07 14:36 52.66902 4.28609 34086 ft 432 kts 290°
2026-05-07 14:37 52.68995 4.19332 34095 ft 432 kts 290°
2026-05-07 14:37 52.72084 4.05241 34094 ft 440 kts 290°
2026-05-07 14:38 52.74174 3.95719 34097 ft 440 kts 290°
2026-05-07 14:38 52.76257 3.86240 34099 ft 438 kts 290°
2026-05-07 14:39 52.78331 3.76806 34100 ft 437 kts 290°
2026-05-07 14:39 52.80406 3.67357 34104 ft 438 kts 290°
2026-05-07 14:40 52.82482 3.57887 34120 ft 439 kts 290°
2026-05-07 14:40 52.84493 3.48351 34117 ft 440 kts 289°
2026-05-07 14:41 52.86480 3.38746 34109 ft 442 kts 290°
2026-05-07 14:41 52.88550 3.29167 34108 ft 443 kts 290°
2026-05-07 14:42 52.90659 3.19597 34101 ft 442 kts 290°
2026-05-07 14:42 52.92489 3.09904 34100 ft 440 kts 282°